Regional Weather Roundup
Issued by NWS Grand Forks, ND

Home | Current Version | Previous Version | Text Only | Print | Product List | Glossary Off
Versions: 1 2 3 4 5 6 7 8 9 10 11 12 13 14 15 16 17 18 19 20 21 22 23 24 25 26 27 28 29 30 31 32 33 34 35 36 37 38 39 40 41 42 43 44 45 46 47 48 49 50

000
ASUS43 KFGF 290331
RWRFGF
PRAIRIE TO PINES  WEATHER ROUNDUP
NATIONAL WEATHER SERVICE EASTERN NORTH DAKOTA/GRAND FORKS ND
1000 PM CDT MON JUL 28 2014

 **SATELLITE DATA USED TO AUGMENT SKY COVER AT AUTOMATED STATIONS**
 *****  WEATHER ACROSS EASTERN NORTH DAKOTA  *****

CITY           SKY/WX    TMP DP  RH WIND       PRES   REMARKS
GRAND FORKS    CLEAR     60  57  89 W3        30.18S
GRAND FRKS AFB CLEAR     59  59 100 W2        30.20R
GRAND FRKS NWS   N/A     61 N/A N/A MISG        N/A
DEVILS LAKE    CLEAR     63  54  72 W5        30.20S
FARGO          PTCLDY    64  54  69 N5        30.18S
WAHPETON ARPT  CLEAR     57  50  77 W5        30.20R
$$

 ***** WEATHER ACROSS CENTRAL AND WESTERN NORTH DAKOTA  *****

CITY           SKY/WX    TMP DP  RH WIND       PRES   REMARKS
BISMARCK       CLEAR     61  53  75 SE3       30.24R
MINOT          CLEAR     63  54  72 SE3       30.22S
JAMESTOWN      CLEAR     61  55  81 CALM      30.22R
MINOT AFB      CLEAR     65  58  80 S2        30.22R
GARRISON         N/A     64  56  75 CALM      30.23S
WILLISTON      CLEAR     71  52  50 E6        30.21R
DICKINSON      CLEAR     62  55  77 E8        30.24R
HETTINGER      PTCLDY    65  52  62 E8        30.26R
$$

 *****  OTHER AIRPORT OBSERVATIONS IN OUR AREA  *****

CITY           SKY/WX    TMP DP  RH WIND       PRES   REMARKS
WALHALLA         N/A     59  59 100 CALM        N/A
GRAFTON AIRPOR FAIR      64  57  77 NW3       30.18S
VALLEY CITY AR FAIR      57  55  94 NW7       30.22R
CANDO          FAIR      59  55  88 CALM      30.22S
CAVALIER APRT  FAIR      59  55  88 W3        30.19S
GWINNER        CLEAR     61  55  82 NW3       30.23R
SHEYENNE NWR     N/A     61  55  79 W2        29.95S
ROLLA          FAIR      54  54 100 W3        30.24S
 ***** THE ABOVE OBSERVATIONS ARE NON NWS ARE NOT QUALITY
       CONTROLLED AND MAY MIS-REPORT RAIN FOR SNOW...
$$

  *****  WEATHER ACROSS NORTHERN MINNESOTA  *****

CITY           SKY/WX    TMP DP  RH WIND       PRES   REMARKS
FLAG ISLAND    CLEAR     70  55  60 NW13      30.14S
WARROAD        CLEAR     66  57  72 W6        30.17R
ROSEAU         CLEAR     64  57  77 W6        30.17S
HALLOCK        CLEAR     63  57  82 NW3       30.18S
THF RVR FALLS  CLEAR     63  55  77 NW6       30.19R
BAUDETTE       CLEAR     65  56  72 CALM      30.16R
WASKISH        CLEAR     66  57  72 CALM      30.16S
CROOKSTON      CLEAR     63  57  82 NW3       30.19S
$$
  *****  WEATHER ACROSS CENTRAL AND WEST MINNESOTA  *****

CITY           SKY/WX    TMP DP  RH WIND       PRES   REMARKS
FOSSTON        CLEAR     55  48  76 CALM      30.20S
BEMIDJI        CLEAR     61  54  76 W6        30.18S
PARK RAPIDS    CLEAR     59  53  80 NW3       30.18S
ELBOW LAKE     FAIR      59  54  82 NW6       30.20R
WADENA         CLEAR     59  54  82 NW3       30.19R
DETROIT LAKES  CLEAR     63  55  77 NW3       30.21S
MOORHEAD       CLEAR     63  59  88 CALM      30.20R
FERGUS FALLS   CLEAR     63  52  67 CALM      30.20R
MORRIS MN      CLEAR     57  54  88 NW5       30.19S
STAPLES        CLEAR     57  54  88 NW3       30.18S
$$
  *****  WEATHER ELSEWHERE ACROSS MINNESOTA  *****

CITY           SKY/WX    TMP DP  RH WIND       PRES   REMARKS
DULUTH         CLEAR     64  54  69 NW9       30.11R
INTRNTL FALLS  MOCLDY    66  56  70 N8G18     30.13R
ELY            MOCLDY    64  52  63 NE5       30.13R
CLOQUET        CLEAR     61  54  77 W7        30.12S
WHEATON        CLEAR     59  54  82 CALM      30.22S
BRAINERD       CLEAR     64  55  72 NW3       30.17R
HIBBING        CLEAR     60  53  77 NW6       30.13R
ALEXANDRIA     CLEAR     65  53  65 NW6       30.20S
SAINT CLOUD    CLEAR     64  55  72 NW6       30.15S
MINNEAPOLIS    CLEAR     68  56  65 NW5       30.13S
$$

  *****  WEATHER ACROSS SOUTH DAKOTA  *****

CITY           SKY/WX    TMP DP  RH WIND       PRES   REMARKS
SIOUX FALLS    CLEAR     61  54  77 N5        30.22R
BROOKINGS      NOT AVBL
WATERTOWN      CLEAR     61  52  72 CALM      30.22S
HURON          CLEAR     62  52  69 E3        30.22R
SISSETON         N/A     59  55  87 NW5       30.20S
ABERDEEN       CLEAR     58  53  84 CALM      30.22S
MITCHELL       CLEAR     65  54  67 CALM      30.22R
PIERRE         CLEAR     64  54  69 NE8       30.21S
MOBRIDGE       CLEAR     64  50  60 NE8       30.22R
RAPID CITY     CLEAR     68  52  56 E14       30.24R
$$

  *****  SOME WEATHER IN NEARBY STATES *****

CITY           SKY/WX    TMP DP  RH WIND       PRES   REMARKS
GLASGOW MT     CLEAR     76  50  40 E10       30.18R
GREAT FALLS MT MOCLDY    80  38  22 N9        30.13R
CHEYENNE WY    MOCLDY    65  55  70 S12       30.35R
SCOTTSBLUFF NE CLEAR     74  60  61 E7        30.21R
OMAHA NE       CLEAR     68  57  68 CALM      30.18R
DES MOINES IA  PTCLDY    67  58  72 W3        30.16R
DAVENPORT IA   CLEAR     57  54  89 W5        30.13R
CHICAGO IL     CLOUDY    62  49  62 SE3       30.07S
EAU CLAIRE WI  CLEAR     63  55  75 CALM      30.10S
LA CROSSE WI   CLEAR     64  56  75 CALM      30.11R
$$

  *****  SOME NATIONAL WEATHER *****

CITY           SKY/WX    TMP DP  RH WIND       PRES   REMARKS
LA GUARDIA NY  PTCLDY    71  58  63 NW15G26   29.68R
RALEIGH NC     PTCLDY    74  57  55 VRB3      29.88R
ATLANTA GA     CLEAR     75  60  59 NW7       29.98R
NEW ORLEANS LA CLOUDY    84  76  76 W6        30.01R HX  93
OKLAHOMA CITY  MOCLDY    77  61  57 E3        30.16R
ALBUQUERQUE NM LGT RAIN  71  61  70 E17       30.30R
SALT LAKE CITY CLOUDY    69  62  78 SE9       30.19F
LOS ANGELES CA PTCLDY    70  65  84 W14       30.00R
BOISE ID       PTCLDY    91  42  18 S3        30.01R
SEATTLE WA     CLEAR     83  54  37 N8        30.07S
$$

*** WEATHER ACROSS MANITOBA...SASKATCHEWAN AND ONTARIO ***
                ***ONTARIO***

CITY           SKY/WX    TMP DP  RH WIND       PRES   REMARKS
GERALDTON      PTCLDY    57  55  94 NW5       29.97S
THUNDER BAY    LGT RAIN  57  57 100 SW6       30.03F
SIOUX LOOKOUT  PTCLDY    57  55  94 S3        30.07F
TORONTO        PTCLDY    59  50  72 NW10      29.88S
BIG TROUT LK   PTCLDY    59  57  94 N5        30.02S
PICKLE LAKE    NOT AVBL
DRYDEN         PTCLDY    61  55  82 W9        30.10F
KENORA         MOCLDY    63  55  77 W7        30.15F
$$
                *** MANITOBA***

CITY           SKY/WX    TMP DP  RH WIND       PRES   REMARKS
BRANDON        CLEAR     59  55  88 NW3       30.21S
DAUPHIN        CLEAR     63  55  77 VRB2      30.19R
ISLAND LAKE    MOCLDY    70  57  64 W3        30.07S
PILOT MOUND      N/A     59  54  82 W3          N/A
THE PAS        PTCLDY    63  55  77 CALM      30.16S
THOMPSON       PTCLDY    64  52  63 N6        30.09
WINNIPEG       PTCLDY    59  55  88 W7        30.18S
LYNN LAKE      CLEAR     72  54  53 NW5       30.12R
CHURCHILL      FOG       50  48  93 SE10      30.14R VSB 1/2
GILLAM         PTCLDY    64  57  77 E3        30.08R
$$
                ***SASKATCHEWAN***

CITY           SKY/WX    TMP DP  RH WIND       PRES   REMARKS
ESTEVAN        MOCLDY    66  61  82 E5        30.23S
KINDERSLEY     PTCLDY    66  61  82 E8        30.20S
LLOYDMINSTER   PTCLDY    68  61  77 E7        30.20S
PRINCE ALBERT  PTCLDY    68  63  83 SE3       30.19S
REGINA         PTCLDY    70  59  68 SE6       30.22R
YORKTON        CLEAR     66  57  72 SE3       30.21S
N. BATTLEFORD    N/A     68  63  83 E3        30.22R
LA RONGE       PTCLDY    70  55  60 SE3       30.17S
SASKATOON      PTCLDY    70  63  78 E5        30.22S
SWIFT CURRENT  PTCLDY    70  55  60 E12       30.22S
$$
NOTE: THESE ARE AUTOMATED STATIONS WITH LIMITED QUALITY CONTROL
      "FAIR" INDICATES FEW OR NO CLOUDS BELOW 12,000 FEET WITH NO
      SIGNIFICANT WEATHER AND/OR OBSTRUCTIONS TO VISIBILITY.
      SKY/WX - SKY CONDITION AND SIGNIFICANT WEATHER.
      TMP - AIR TEMPERATURE.    DP   - DEWPOINT TEMPERATURE.
      RH  - RELATIVE HUMIDITY.  PRES - PRESSURE.
      HX  - HEAT INDEX.         WCI  - WIND CHILL INDEX.
$


USA.gov is the U.S. government's official web portal to all federal, state and local government web resources and services.